Location: Borz?cin
(51.1714°N, 19.6030°E)
Time: 18:08:40
(UTC+00:00)

Cosmos 405 Rocket - Pass Details

Date: 19 May 2025
Orbit: 413 x 447 km, 81.2° (Epoch: 20 June)

Event Time Altitude Azimuth Distance (km) Brightness Sun altitude
Rises 21:36:47 0° 343° (NNW) 2,464 7.9 -17.6°
Reaches altitude 10° 21:38:54 10° 339° (NNW) 1,581 6.4 -17.7°
Maximum altitude 21:42:16 52° 262° (W) 556 2.8 -17.8°
Enters shadow 21:43:02 42° 216° (SW) 648 2.8 -17.8°
